Orbital Elements at Epoch 2459000.5 (2020-May-31.0) TDB
Reference: JPL 17 (heliocentric ecliptic J2000)
Element | Value | Uncertainty (1-sigma) | Units |
e | .1364509138444067 | 4.3031e-08 | |
a | 2.432289584948513 | 1.0431e-08 | au |
q | 2.100401448348056 | 1.0769e-07 | au |
i | 6.785674835408122 | 4.4032e-06 | deg |
node | 308.9487205328368 | 3.48e-05 | deg |
peri | 42.27021946770106 | 3.7843e-05 | deg |
M | 230.8710656124547 | 1.7321e-05 | deg |
tp | 2459497.484007161890 (2021-Oct-09.98400716) | 6.8343e-05 | TDB |
period | 1385.547270461615 3.79 | 8.9129e-06 2.44e-08 | d yr |
n | .2598251302390144 | 1.6714e-09 | deg/d |
Q | 2.76417772154897 | 1.1854e-08 | au |
|
| | Orbit Determination Parameters
Additional Information
|